owner,sensor,date,latitude,longitude,vertical_datum,wind_speed,wind_to_direction,wind_speed_of_gust,qcFlag 
COMPS,ioos:station:USF.COMPS:C10:1,2019-11-01T00:35:00,27.1690,-82.9260,3.0,2.69,268.41,3.4,'11111222,11111222,11111222' 
COMPS,ioos:station:USF.COMPS:C10:1,2019-11-01T01:35:00,27.1690,-82.9260,3.0,1.78,295.51,2.63,'11111222,11111222,11111222' 
COMPS,ioos:station:USF.COMPS:C10:1,2019-11-01T02:35:00,27.1690,-82.9260,3.0,1.07,287.51,1.79,'11111222,11111222,11111222' 
COMPS,ioos:station:USF.COMPS:C10:1,2019-11-01T03:35:00,27.1690,-82.9260,3.0,0.89,315.69,1.41,'11111222,11111222,11111222' 
COMPS,ioos:station:USF.COMPS:C10:1,2019-11-01T04:35:00,27.1690,-82.9260,3.0,1.72,252.52,2.37,'11111222,11111222,11111222' 
COMPS,ioos:station:USF.COMPS:C10:1,2019-11-01T05:35:00,27.1690,-82.9260,3.0,1.67,286.69,2.27,'11111222,11111222,11111222' 
COMPS,ioos:station:USF.COMPS:C10:1,2019-11-01T06:35:00,27.1690,-82.9260,3.0,2.26,289.12,3.15,'11111222,11111222,11111222' 
COMPS,ioos:station:USF.COMPS:C10:1,2019-11-01T07:35:00,27.1690,-82.9260,3.0,2.74,285.24,3.62,'11111222,11111222,11111222' 
COMPS,ioos:station:USF.COMPS:C10:1,2019-11-01T08:35:00,27.1690,-82.9260,3.0,8.8,345.43,11.49,'11111222,11111222,11111222' 
COMPS,ioos:station:USF.COMPS:C10:1,2019-11-01T09:35:00,27.1690,-82.9260,3.0,9.74,346.9,12.24,'11111222,11111222,11111222' 
COMPS,ioos:station:USF.COMPS:C10:1,2019-11-01T10:35:00,27.1690,-82.9260,3.0,8.43,1.3,10.04,'11111222,11111222,11111222' 
COMPS,ioos:station:USF.COMPS:C10:1,2019-11-01T11:35:00,27.1690,-82.9260,3.0,8.66,4.45,10.22,'11111222,11111222,11111222' 
COMPS,ioos:station:USF.COMPS:C10:1,2019-11-01T12:35:00,27.1690,-82.9260,3.0,8.3,13.34,10.73,'11111222,11111222,11111222' 
COMPS,ioos:station:USF.COMPS:C10:1,2019-11-01T13:35:00,27.1690,-82.9260,3.0,7.41,15.41,9.04,'11111222,11111222,11111222' 
COMPS,ioos:station:USF.COMPS:C10:1,2019-11-01T14:35:00,27.1690,-82.9260,3.0,7.0,23.79,8.61,'11111222,11111222,11111222' 
COMPS,ioos:station:USF.COMPS:C10:1,2019-11-01T15:35:00,27.1690,-82.9260,3.0,6.14,27.54,7.57,'11111222,11111222,11111222' 
COMPS,ioos:station:USF.COMPS:C10:1,2019-11-01T16:35:00,27.1690,-82.9260,3.0,5.51,21.52,6.91,'11111222,11111222,11111222' 
COMPS,ioos:station:USF.COMPS:C10:1,2019-11-01T17:35:00,27.1690,-82.9260,3.0,3.56,34.2,4.78,'11111222,11111222,11111222' 
COMPS,ioos:station:USF.COMPS:C10:1,2019-11-01T18:35:00,27.1690,-82.9260,3.0,3.08,3.94,4.21,'11111222,11111222,11111222' 
COMPS,ioos:station:USF.COMPS:C10:1,2019-11-01T19:35:00,27.1690,-82.9260,3.0,5.01,353.98,6.41,'11111222,11111222,11111222' 
COMPS,ioos:station:USF.COMPS:C10:1,2019-11-01T20:35:00,27.1690,-82.9260,3.0,6.06,343.76,7.79,'11111222,11111222,11111222' 
COMPS,ioos:station:USF.COMPS:C10:1,2019-11-01T21:35:00,27.1690,-82.9260,3.0,6.54,345.44,8.27,'11111222,11111222,11111222' 
COMPS,ioos:station:USF.COMPS:C10:1,2019-11-01T22:35:00,27.1690,-82.9260,3.0,7.62,353.58,9.35,'11111222,11111222,11111222' 
COMPS,ioos:station:USF.COMPS:C10:1,2019-11-01T23:35:00,27.1690,-82.9260,3.0,6.84,359.0,8.31,'11111222,11111222,11111222' 
COMPS,ioos:station:USF.COMPS:C10:1,2019-11-02T00:35:00,27.1690,-82.9260,3.0,7.04,359.45,8.63,'11111222,11144222,11111222' 
COMPS,ioos:station:USF.COMPS:C10:1,2019-11-02T01:35:00,27.1690,-82.9260,3.0,6.57,3.69,8.43,'11111222,11111222,11111222' 
COMPS,ioos:station:USF.COMPS:C10:1,2019-11-02T02:35:00,27.1690,-82.9260,3.0,6.19,5.64,7.69,'11111222,11111222,11111222' 
COMPS,ioos:station:USF.COMPS:C10:1,2019-11-02T03:35:00,27.1690,-82.9260,3.0,4.42,35.14,5.72,'11111222,11111222,11111222' 
COMPS,ioos:station:USF.COMPS:C10:1,2019-11-02T04:35:00,27.1690,-82.9260,3.0,6.28,108.05,8.16,'11111222,11111222,11111222' 
COMPS,ioos:station:USF.COMPS:C10:1,2019-11-02T05:35:00,27.1690,-82.9260,3.0,6.63,112.61,8.31,'11111222,11111222,11111222' 
COMPS,ioos:station:USF.COMPS:C10:1,2019-11-02T06:35:00,27.1690,-82.9260,3.0,6.66,106.26,8.83,'11111222,11111222,11111222' 
COMPS,ioos:station:USF.COMPS:C10:1,2019-11-02T07:35:00,27.1690,-82.9260,3.0,6.26,102.64,8.26,'11111222,11111222,11111222' 
COMPS,ioos:station:USF.COMPS:C10:1,2019-11-02T08:35:00,27.1690,-82.9260,3.0,4.62,100.1,6.72,'11111222,11111222,11111222' 
COMPS,ioos:station:USF.COMPS:C10:1,2019-11-02T09:35:00,27.1690,-82.9260,3.0,4.62,82.07,6.01,'11111222,11111222,11111222' 
COMPS,ioos:station:USF.COMPS:C10:1,2019-11-02T10:35:00,27.1690,-82.9260,3.0,4.76,79.31,6.36,'11111222,11111222,11111222' 
COMPS,ioos:station:USF.COMPS:C10:1,2019-11-02T11:35:00,27.1690,-82.9260,3.0,4.4,73.83,5.87,'11111222,11111222,11111222' 
COMPS,ioos:station:USF.COMPS:C10:1,2019-11-02T12:35:00,27.1690,-82.9260,3.0,4.38,75.88,5.98,'11111222,11111222,11111222' 
COMPS,ioos:station:USF.COMPS:C10:1,2019-11-02T13:35:00,27.1690,-82.9260,3.0,3.79,85.17,4.91,'11111222,11111222,11111222' 
COMPS,ioos:station:USF.COMPS:C10:1,2019-11-02T14:35:00,27.1690,-82.9260,3.0,1.95,86.24,2.89,'11111222,11111222,11111222' 
COMPS,ioos:station:USF.COMPS:C10:1,2019-11-02T15:35:00,27.1690,-82.9260,3.0,1.48,52.43,2.46,'11111222,11111222,11111222' 
COMPS,ioos:station:USF.COMPS:C10:1,2019-11-02T16:35:00,27.1690,-82.9260,3.0,1.64,32.33,3.4,'11111222,11111222,11111222' 
COMPS,ioos:station:USF.COMPS:C10:1,2019-11-02T17:35:00,27.1690,-82.9260,3.0,1.06,347.16,2.09,'11111222,11111222,11111222' 
COMPS,ioos:station:USF.COMPS:C10:1,2019-11-02T18:35:00,27.1690,-82.9260,3.0,3.02,324.6,4.43,'11111222,11111222,11111222' 
COMPS,ioos:station:USF.COMPS:C10:1,2019-11-02T19:35:00,27.1690,-82.9260,3.0,4.91,336.85,6.4,'11111222,11111222,11111222' 
COMPS,ioos:station:USF.COMPS:C10:1,2019-11-02T20:35:00,27.1690,-82.9260,3.0,9.67,349.79,11.37,'11111222,11111222,11111222' 
COMPS,ioos:station:USF.COMPS:C10:1,2019-11-02T21:35:00,27.1690,-82.9260,3.0,9.11,344.67,11.69,'11111222,11111222,11111222' 
COMPS,ioos:station:USF.COMPS:C10:1,2019-11-02T22:35:00,27.1690,-82.9260,3.0,9.56,346.31,12.47,'11111222,11111222,11111222' 
COMPS,ioos:station:USF.COMPS:C10:1,2019-11-02T23:35:00,27.1690,-82.9260,3.0,10.05,346.76,12.21,'11111222,11111222,11111222' 
COMPS,ioos:station:USF.COMPS:C10:1,2019-11-03T00:35:00,27.1690,-82.9260,3.0,9.44,352.1,11.59,'11111222,11111222,11111222' 
COMPS,ioos:station:USF.COMPS:C10:1,2019-11-03T01:35:00,27.1690,-82.9260,3.0,9.33,357.6,11.75,'11111222,11111222,11111222' 
COMPS,ioos:station:USF.COMPS:C10:1,2019-11-03T02:35:00,27.1690,-82.9260,3.0,8.84,1.81,10.75,'11111222,11111222,11111222' 
COMPS,ioos:station:USF.COMPS:C10:1,2019-11-03T03:35:00,27.1690,-82.9260,3.0,8.6,10.68,10.68,'11111222,11111222,11111222' 
COMPS,ioos:station:USF.COMPS:C10:1,2019-11-03T04:35:00,27.1690,-82.9260,3.0,8.02,2.63,10.12,'11111222,11111222,11111222' 
COMPS,ioos:station:USF.COMPS:C10:1,2019-11-03T05:35:00,27.1690,-82.9260,3.0,8.08,8.42,10.19,'11111222,11111222,11111222' 
COMPS,ioos:station:USF.COMPS:C10:1,2019-11-03T06:35:00,27.1690,-82.9260,3.0,7.24,18.32,9.11,'11111222,11111222,11111222' 
COMPS,ioos:station:USF.COMPS:C10:1,2019-11-03T07:35:00,27.1690,-82.9260,3.0,7.85,26.98,9.95,'11111222,11111222,11111222' 
COMPS,ioos:station:USF.COMPS:C10:1,2019-11-03T08:35:00,27.1690,-82.9260,3.0,8.21,27.41,10.59,'11111222,11111222,11111222' 
COMPS,ioos:station:USF.COMPS:C10:1,2019-11-03T09:35:00,27.1690,-82.9260,3.0,8.74,31.39,10.68,'11111222,11111222,11111222' 
COMPS,ioos:station:USF.COMPS:C10:1,2019-11-03T10:35:00,27.1690,-82.9260,3.0,8.69,45.36,10.91,'11111222,11111222,11111222' 
COMPS,ioos:station:USF.COMPS:C10:1,2019-11-03T11:35:00,27.1690,-82.9260,3.0,8.24,46.08,10.5,'11111222,11111222,11111222' 
COMPS,ioos:station:USF.COMPS:C10:1,2019-11-03T12:35:00,27.1690,-82.9260,3.0,8.77,49.19,11.57,'11111222,11111222,11111222' 
COMPS,ioos:station:USF.COMPS:C10:1,2019-11-03T13:35:00,27.1690,-82.9260,3.0,9.13,50.58,11.36,'11111222,11111222,11111222' 
COMPS,ioos:station:USF.COMPS:C10:1,2019-11-03T14:35:00,27.1690,-82.9260,3.0,7.67,54.7,9.17,'11111222,11111222,11111222' 
COMPS,ioos:station:USF.COMPS:C10:1,2019-11-03T15:35:00,27.1690,-82.9260,3.0,6.45,59.34,8.6,'11111222,11111222,11111222' 
COMPS,ioos:station:USF.COMPS:C10:1,2019-11-03T16:35:00,27.1690,-82.9260,3.0,5.41,61.99,6.87,'11111222,11111222,11111222' 
COMPS,ioos:station:USF.COMPS:C10:1,2019-11-03T17:35:00,27.1690,-82.9260,3.0,4.92,54.55,6.59,'11111222,11111222,11111222' 
COMPS,ioos:station:USF.COMPS:C10:1,2019-11-03T18:35:00,27.1690,-82.9260,3.0,5.11,39.98,6.58,'11111222,11111222,11111222' 
COMPS,ioos:station:USF.COMPS:C10:1,2019-11-03T19:35:00,27.1690,-82.9260,3.0,5.02,36.37,6.6,'11111222,11111222,11111222' 
COMPS,ioos:station:USF.COMPS:C10:1,2019-11-03T20:35:00,27.1690,-82.9260,3.0,5.34,24.86,7.42,'11111222,11111222,11111222' 
COMPS,ioos:station:USF.COMPS:C10:1,2019-11-03T21:35:00,27.1690,-82.9260,3.0,5.68,38.09,7.59,'11111222,11111222,11111222' 
COMPS,ioos:station:USF.COMPS:C10:1,2019-11-03T22:35:00,27.1690,-82.9260,3.0,7.47,77.44,9.24,'11111222,11111222,11111222' 
COMPS,ioos:station:USF.COMPS:C10:1,2019-11-03T23:35:00,27.1690,-82.9260,3.0,7.32,86.32,9.25,'11111222,11111222,11111222' 
COMPS,ioos:station:USF.COMPS:C10:1,2019-11-04T00:35:00,27.1690,-82.9260,3.0,9.21,82.02,11.67,'11111222,11111222,11111222' 
COMPS,ioos:station:USF.COMPS:C10:1,2019-11-04T01:35:00,27.1690,-82.9260,3.0,8.64,90.86,10.34,'11111222,11111222,11111222' 
COMPS,ioos:station:USF.COMPS:C10:1,2019-11-04T02:35:00,27.1690,-82.9260,3.0,8.62,93.56,11.75,'11111222,11111222,11111222' 
COMPS,ioos:station:USF.COMPS:C10:1,2019-11-04T03:35:00,27.1690,-82.9260,3.0,8.19,85.05,10.29,'11111222,11111222,11111222' 
COMPS,ioos:station:USF.COMPS:C10:1,2019-11-04T04:35:00,27.1690,-82.9260,3.0,8.17,90.7,10.21,'11111222,11111222,11111222' 
COMPS,ioos:station:USF.COMPS:C10:1,2019-11-04T05:35:00,27.1690,-82.9260,3.0,7.89,92.44,9.44,'11111222,11111222,11111222' 
COMPS,ioos:station:USF.COMPS:C10:1,2019-11-04T16:35:00,27.1690,-82.9260,3.0,7.09,96.47,8.45,'11111222,11111222,11111222' 
COMPS,ioos:station:USF.COMPS:C10:1,2019-11-04T17:35:00,27.1690,-82.9260,3.0,6.38,94.38,7.61,'11111222,11111222,11111222' 
COMPS,ioos:station:USF.COMPS:C10:1,2019-11-04T18:35:00,27.1690,-82.9260,3.0,5.59,98.73,6.91,'11111222,11111222,11111222' 
COMPS,ioos:station:USF.COMPS:C10:1,2019-11-04T19:35:00,27.1690,-82.9260,3.0,4.07,101.22,5.13,'11111222,11111222,11111222' 
COMPS,ioos:station:USF.COMPS:C10:1,2019-11-04T20:35:00,27.1690,-82.9260,3.0,3.39,84.48,4.2,'11111222,11111222,11111222' 
COMPS,ioos:station:USF.COMPS:C10:1,2019-11-04T21:35:00,27.1690,-82.9260,3.0,1.95,78.91,2.37,'11111222,11111222,11111222' 
COMPS,ioos:station:USF.COMPS:C10:1,2019-11-04T22:35:00,27.1690,-82.9260,3.0,1.18,60.95,1.54,'11111222,11111222,11111222' 
COMPS,ioos:station:USF.COMPS:C10:1,2019-11-04T23:35:00,27.1690,-82.9260,3.0,2.55,45.88,3.12,'11111222,11111222,11111222' 
COMPS,ioos:station:USF.COMPS:C10:1,2019-11-05T00:35:00,27.1690,-82.9260,3.0,2.76,41.23,3.24,'11111222,11111222,11111222' 
COMPS,ioos:station:USF.COMPS:C10:1,2019-11-05T01:35:00,27.1690,-82.9260,3.0,2.73,28.6,3.51,'11111222,11111222,11111222' 
COMPS,ioos:station:USF.COMPS:C10:1,2019-11-05T02:35:00,27.1690,-82.9260,3.0,6.78,84.6,8.05,'11111222,11111222,11111222' 
COMPS,ioos:station:USF.COMPS:C10:1,2019-11-05T03:35:00,27.1690,-82.9260,3.0,6.85,84.34,8.17,'11111222,11111222,11111222' 
COMPS,ioos:station:USF.COMPS:C10:1,2019-11-05T04:35:00,27.1690,-82.9260,3.0,6.3,94.27,7.44,'11111222,11111222,11111222' 
COMPS,ioos:station:USF.COMPS:C10:1,2019-11-05T05:35:00,27.1690,-82.9260,3.0,6.15,119.25,7.12,'11111222,11111222,11111222' 
COMPS,ioos:station:USF.COMPS:C10:1,2019-11-05T06:35:00,27.1690,-82.9260,3.0,5.57,126.8,7.21,'11111222,11111222,11111222' 
COMPS,ioos:station:USF.COMPS:C10:1,2019-11-05T07:35:00,27.1690,-82.9260,3.0,3.94,149.81,4.91,'11111222,11111222,11111222' 
COMPS,ioos:station:USF.COMPS:C10:1,2019-11-05T08:35:00,27.1690,-82.9260,3.0,4.56,156.98,5.61,'11111222,11111222,11111222' 
COMPS,ioos:station:USF.COMPS:C10:1,2019-11-05T09:35:00,27.1690,-82.9260,3.0,4.91,156.98,6.12,'11111222,11111222,11111222' 
COMPS,ioos:station:USF.COMPS:C10:1,2019-11-05T10:35:00,27.1690,-82.9260,3.0,4.58,155.47,5.47,'11111222,11111222,11111222' 
COMPS,ioos:station:USF.COMPS:C10:1,2019-11-05T11:35:00,27.1690,-82.9260,3.0,5.21,153.62,6.24,'11111222,11111222,11111222' 
COMPS,ioos:station:USF.COMPS:C10:1,2019-11-05T12:35:00,27.1690,-82.9260,3.0,4.6,145.52,6.0,'11111222,11111222,11111222' 
COMPS,ioos:station:USF.COMPS:C10:1,2019-11-05T13:35:00,27.1690,-82.9260,3.0,4.08,145.29,5.41,'11111222,11111222,11111222' 
COMPS,ioos:station:USF.COMPS:C10:1,2019-11-05T14:35:00,27.1690,-82.9260,3.0,3.81,159.42,5.31,'11111222,11111222,11111222' 
COMPS,ioos:station:USF.COMPS:C10:1,2019-11-05T15:35:00,27.1690,-82.9260,3.0,2.78,154.42,3.84,'11111222,11111222,11111222' 
COMPS,ioos:station:USF.COMPS:C10:1,2019-11-05T16:35:00,27.1690,-82.9260,3.0,3.19,146.62,4.31,'11111222,11111222,11111222' 
COMPS,ioos:station:USF.COMPS:C10:1,2019-11-05T17:35:00,27.1690,-82.9260,3.0,3.04,138.68,4.14,'11111222,11111222,11111222' 
COMPS,ioos:station:USF.COMPS:C10:1,2019-11-05T18:35:00,27.1690,-82.9260,3.0,2.88,155.07,4.19,'11111222,11111222,11111222' 
COMPS,ioos:station:USF.COMPS:C10:1,2019-11-05T19:35:00,27.1690,-82.9260,3.0,1.28,139.84,2.15,'11111222,11111222,11111222' 
COMPS,ioos:station:USF.COMPS:C10:1,2019-11-05T20:35:00,27.1690,-82.9260,3.0,1.11,156.7,1.86,'11111222,11111222,11111222' 
COMPS,ioos:station:USF.COMPS:C10:1,2019-11-05T21:35:00,27.1690,-82.9260,3.0,1.25,213.99,1.85,'11111222,11111222,11111222' 
COMPS,ioos:station:USF.COMPS:C10:1,2019-11-05T22:35:00,27.1690,-82.9260,3.0,1.38,301.28,1.96,'11111222,11111222,11111222' 
COMPS,ioos:station:USF.COMPS:C10:1,2019-11-05T23:35:00,27.1690,-82.9260,3.0,1.78,313.63,2.83,'11111222,11111222,11111222' 
COMPS,ioos:station:USF.COMPS:C10:1,2019-11-06T00:35:00,27.1690,-82.9260,3.0,3.23,354.49,4.46,'11111222,11111222,11111222' 
COMPS,ioos:station:USF.COMPS:C10:1,2019-11-06T01:35:00,27.1690,-82.9260,3.0,5.39,13.62,6.39,'11111222,11111222,11111222' 
COMPS,ioos:station:USF.COMPS:C10:1,2019-11-06T02:35:00,27.1690,-82.9260,3.0,4.82,32.18,5.94,'11111222,11111222,11111222' 
COMPS,ioos:station:USF.COMPS:C10:1,2019-11-06T03:35:00,27.1690,-82.9260,3.0,6.49,39.39,7.77,'11111222,11111222,11111222' 
COMPS,ioos:station:USF.COMPS:C10:1,2019-11-06T04:35:00,27.1690,-82.9260,3.0,6.91,55.55,9.14,'11111222,11111222,11111222' 
COMPS,ioos:station:USF.COMPS:C10:1,2019-11-06T05:35:00,27.1690,-82.9260,3.0,4.96,56.66,6.04,'11111222,11111222,11111222' 
COMPS,ioos:station:USF.COMPS:C10:1,2019-11-06T06:35:00,27.1690,-82.9260,3.0,5.67,66.24,6.99,'11111222,11111222,11111222' 
COMPS,ioos:station:USF.COMPS:C10:1,2019-11-06T07:35:00,27.1690,-82.9260,3.0,5.04,79.88,6.2,'11111222,11111222,11111222' 
COMPS,ioos:station:USF.COMPS:C10:1,2019-11-06T08:35:00,27.1690,-82.9260,3.0,6.42,94.23,8.08,'11111222,11111222,11111222' 
COMPS,ioos:station:USF.COMPS:C10:1,2019-11-06T09:35:00,27.1690,-82.9260,3.0,6.11,99.4,7.4,'11111222,11111222,11111222' 
COMPS,ioos:station:USF.COMPS:C10:1,2019-11-06T10:35:00,27.1690,-82.9260,3.0,5.6,89.89,6.93,'11111222,11111222,11111222' 
COMPS,ioos:station:USF.COMPS:C10:1,2019-11-06T11:35:00,27.1690,-82.9260,3.0,5.05,78.51,6.26,'11111222,11111222,11111222' 
COMPS,ioos:station:USF.COMPS:C10:1,2019-11-06T12:35:00,27.1690,-82.9260,3.0,5.89,73.4,6.94,'11111222,11111222,11111222' 
COMPS,ioos:station:USF.COMPS:C10:1,2019-11-06T13:35:00,27.1690,-82.9260,3.0,5.76,77.44,6.82,'11111222,11111222,11111222' 
COMPS,ioos:station:USF.COMPS:C10:1,2019-11-06T14:35:00,27.1690,-82.9260,3.0,5.14,71.65,6.16,'11111222,11111222,11111222' 
COMPS,ioos:station:USF.COMPS:C10:1,2019-11-06T15:35:00,27.1690,-82.9260,3.0,6.04,65.26,7.29,'11111222,11111222,11111222' 
COMPS,ioos:station:USF.COMPS:C10:1,2019-11-06T16:35:00,27.1690,-82.9260,3.0,5.26,71.45,6.39,'11111222,11111222,11111222' 
COMPS,ioos:station:USF.COMPS:C10:1,2019-11-06T17:35:00,27.1690,-82.9260,3.0,5.34,58.64,6.49,'11111222,11111222,11111222' 
COMPS,ioos:station:USF.COMPS:C10:1,2019-11-06T18:35:00,27.1690,-82.9260,3.0,5.11,19.99,6.34,'11111222,11111222,11111222' 
COMPS,ioos:station:USF.COMPS:C10:1,2019-11-06T19:35:00,27.1690,-82.9260,3.0,5.98,18.29,7.19,'11111222,11111222,11111222' 
COMPS,ioos:station:USF.COMPS:C10:1,2019-11-06T20:35:00,27.1690,-82.9260,3.0,6.55,20.81,7.95,'11111222,11111222,11111222' 
COMPS,ioos:station:USF.COMPS:C10:1,2019-11-06T21:35:00,27.1690,-82.9260,3.0,7.62,21.51,9.38,'11111222,11111222,11111222' 
COMPS,ioos:station:USF.COMPS:C10:1,2019-11-06T22:35:00,27.1690,-82.9260,3.0,7.26,27.86,8.83,'11111222,11111222,11111222' 
COMPS,ioos:station:USF.COMPS:C10:1,2019-11-06T23:35:00,27.1690,-82.9260,3.0,8.84,56.86,10.69,'11111222,11111222,11111222' 
COMPS,ioos:station:USF.COMPS:C10:1,2019-11-07T00:35:00,27.1690,-82.9260,3.0,9.5,71.98,11.3,'11111222,11111222,11111222' 
COMPS,ioos:station:USF.COMPS:C10:1,2019-11-07T01:35:00,27.1690,-82.9260,3.0,9.38,75.39,11.66,'11111222,11111222,11111222' 
COMPS,ioos:station:USF.COMPS:C10:1,2019-11-07T02:35:00,27.1690,-82.9260,3.0,9.86,78.67,11.42,'11111222,11111222,11111222' 
COMPS,ioos:station:USF.COMPS:C10:1,2019-11-07T03:35:00,27.1690,-82.9260,3.0,9.2,82.42,11.14,'11111222,11111222,11111222' 
COMPS,ioos:station:USF.COMPS:C10:1,2019-11-07T04:35:00,27.1690,-82.9260,3.0,8.36,82.79,10.31,'11111222,11111222,11111222' 
COMPS,ioos:station:USF.COMPS:C10:1,2019-11-07T05:35:00,27.1690,-82.9260,3.0,7.67,85.3,9.23,'11111222,11111222,11111222' 
COMPS,ioos:station:USF.COMPS:C10:1,2019-11-07T06:35:00,27.1690,-82.9260,3.0,8.13,91.34,10.0,'11111222,11111222,11111222' 
COMPS,ioos:station:USF.COMPS:C10:1,2019-11-07T07:35:00,27.1690,-82.9260,3.0,7.3,84.91,8.79,'11111222,11111222,11111222' 
COMPS,ioos:station:USF.COMPS:C10:1,2019-11-07T08:35:00,27.1690,-82.9260,3.0,7.78,89.03,9.15,'11111222,11111222,11111222' 
COMPS,ioos:station:USF.COMPS:C10:1,2019-11-07T09:35:00,27.1690,-82.9260,3.0,6.72,93.35,7.93,'11111222,11111222,11111222' 
COMPS,ioos:station:USF.COMPS:C10:1,2019-11-07T10:35:00,27.1690,-82.9260,3.0,6.53,84.19,8.14,'11111222,11111222,11111222' 
COMPS,ioos:station:USF.COMPS:C10:1,2019-11-07T11:35:00,27.1690,-82.9260,3.0,6.02,77.16,7.17,'11111222,11111222,11111222' 
COMPS,ioos:station:USF.COMPS:C10:1,2019-11-07T12:35:00,27.1690,-82.9260,3.0,6.06,75.85,7.14,'11111222,11111222,11111222' 
COMPS,ioos:station:USF.COMPS:C10:1,2019-11-07T13:35:00,27.1690,-82.9260,3.0,5.49,85.16,6.54,'11111222,11111222,11111222' 
COMPS,ioos:station:USF.COMPS:C10:1,2019-11-07T14:35:00,27.1690,-82.9260,3.0,5.65,83.04,7.04,'11111222,11111222,11111222' 
COMPS,ioos:station:USF.COMPS:C10:1,2019-11-07T15:35:00,27.1690,-82.9260,3.0,4.56,84.84,5.48,'11111222,11111222,11111222' 
COMPS,ioos:station:USF.COMPS:C10:1,2019-11-07T16:35:00,27.1690,-82.9260,3.0,4.05,92.87,5.0,'11111222,11111222,11111222' 
COMPS,ioos:station:USF.COMPS:C10:1,2019-11-07T17:35:00,27.1690,-82.9260,3.0,2.89,66.22,4.44,'11111222,11111222,11111222' 
COMPS,ioos:station:USF.COMPS:C10:1,2019-11-07T18:35:00,27.1690,-82.9260,3.0,2.15,40.39,3.25,'11111222,11111222,11111222' 
COMPS,ioos:station:USF.COMPS:C10:1,2019-11-07T19:35:00,27.1690,-82.9260,3.0,2.06,340.71,3.03,'11111222,11111222,11111222' 
COMPS,ioos:station:USF.COMPS:C10:1,2019-11-07T20:35:00,27.1690,-82.9260,3.0,3.44,308.88,4.67,'11111222,11111222,11111222' 
COMPS,ioos:station:USF.COMPS:C10:1,2019-11-07T21:35:00,27.1690,-82.9260,3.0,3.85,324.46,4.71,'11111222,11111222,11111222' 
COMPS,ioos:station:USF.COMPS:C10:1,2019-11-07T22:35:00,27.1690,-82.9260,3.0,4.44,337.62,5.35,'11111222,11111222,11111222' 
COMPS,ioos:station:USF.COMPS:C10:1,2019-11-07T23:35:00,27.1690,-82.9260,3.0,4.96,341.93,5.87,'11111222,11111222,11111222' 
COMPS,ioos:station:USF.COMPS:C10:1,2019-11-08T00:35:00,27.1690,-82.9260,3.0,5.89,350.14,7.02,'11111222,11111222,11111222' 
COMPS,ioos:station:USF.COMPS:C10:1,2019-11-08T01:35:00,27.1690,-82.9260,3.0,6.36,3.98,7.69,'11111222,11111222,11111222' 
COMPS,ioos:station:USF.COMPS:C10:1,2019-11-08T02:35:00,27.1690,-82.9260,3.0,6.22,4.73,7.75,'11111222,11111222,11111222' 
COMPS,ioos:station:USF.COMPS:C10:1,2019-11-08T03:35:00,27.1690,-82.9260,3.0,6.46,11.24,7.7,'11111222,11111222,11111222' 
COMPS,ioos:station:USF.COMPS:C10:1,2019-11-08T04:35:00,27.1690,-82.9260,3.0,5.72,26.68,6.91,'11111222,11111222,11111222' 
COMPS,ioos:station:USF.COMPS:C10:1,2019-11-08T05:35:00,27.1690,-82.9260,3.0,5.64,28.19,6.61,'11111222,11111222,11111222' 
COMPS,ioos:station:USF.COMPS:C10:1,2019-11-08T06:35:00,27.1690,-82.9260,3.0,3.58,63.86,5.38,'11111222,11111222,11111222' 
COMPS,ioos:station:USF.COMPS:C10:1,2019-11-08T07:35:00,27.1690,-82.9260,3.0,3.56,35.72,4.41,'11111222,11111222,11111222' 
COMPS,ioos:station:USF.COMPS:C10:1,2019-11-08T08:35:00,27.1690,-82.9260,3.0,4.14,16.23,5.0,'11111222,11111222,11111222' 
COMPS,ioos:station:USF.COMPS:C10:1,2019-11-08T09:35:00,27.1690,-82.9260,3.0,3.44,26.44,4.66,'11111222,11111222,11111222' 
COMPS,ioos:station:USF.COMPS:C10:1,2019-11-08T10:35:00,27.1690,-82.9260,3.0,3.99,53.28,5.17,'11111222,11111222,11111222' 
COMPS,ioos:station:USF.COMPS:C10:1,2019-11-08T11:35:00,27.1690,-82.9260,3.0,3.19,50.95,4.14,'11111222,11111222,11111222' 
COMPS,ioos:station:USF.COMPS:C10:1,2019-11-08T12:35:00,27.1690,-82.9260,3.0,3.36,36.45,4.07,'11111222,11111222,11111222' 
COMPS,ioos:station:USF.COMPS:C10:1,2019-11-08T13:35:00,27.1690,-82.9260,3.0,2.4,78.49,3.27,'11111222,11111222,11111222' 
COMPS,ioos:station:USF.COMPS:C10:1,2019-11-08T14:35:00,27.1690,-82.9260,3.0,0.75,41.04,1.62,'11111222,11111222,11111222' 
COMPS,ioos:station:USF.COMPS:C10:1,2019-11-08T15:35:00,27.1690,-82.9260,3.0,2.97,3.96,3.65,'11111222,11111222,11111222' 
COMPS,ioos:station:USF.COMPS:C10:1,2019-11-08T16:35:00,27.1690,-82.9260,3.0,4.03,348.09,4.74,'11111222,11111222,11111222' 
COMPS,ioos:station:USF.COMPS:C10:1,2019-11-08T17:35:00,27.1690,-82.9260,3.0,5.15,347.66,6.17,'11111222,11111222,11111222' 
COMPS,ioos:station:USF.COMPS:C10:1,2019-11-08T18:35:00,27.1690,-82.9260,3.0,6.06,7.98,7.6,'11111222,11111222,11111222' 
COMPS,ioos:station:USF.COMPS:C10:1,2019-11-08T19:35:00,27.1690,-82.9260,3.0,5.44,3.75,6.99,'11111222,11111222,11111222' 
COMPS,ioos:station:USF.COMPS:C10:1,2019-11-08T20:35:00,27.1690,-82.9260,3.0,6.42,359.52,7.6,'11111222,11144222,11111222' 
COMPS,ioos:station:USF.COMPS:C10:1,2019-11-08T21:35:00,27.1690,-82.9260,3.0,7.14,3.88,8.79,'11111222,11111222,11111222' 
COMPS,ioos:station:USF.COMPS:C10:1,2019-11-08T22:35:00,27.1690,-82.9260,3.0,6.79,20.79,7.97,'11111222,11111222,11111222' 
COMPS,ioos:station:USF.COMPS:C10:1,2019-11-08T23:35:00,27.1690,-82.9260,3.0,6.58,23.09,7.82,'11111222,11111222,11111222' 
COMPS,ioos:station:USF.COMPS:C10:1,2019-11-09T00:35:00,27.1690,-82.9260,3.0,6.3,44.86,7.87,'11111222,11111222,11111222' 
COMPS,ioos:station:USF.COMPS:C10:1,2019-11-09T01:35:00,27.1690,-82.9260,3.0,8.34,39.31,10.13,'11111222,11111222,11111222' 
COMPS,ioos:station:USF.COMPS:C10:1,2019-11-09T02:35:00,27.1690,-82.9260,3.0,8.85,67.1,10.68,'11111222,11111222,11111222' 
COMPS,ioos:station:USF.COMPS:C10:1,2019-11-09T03:35:00,27.1690,-82.9260,3.0,8.2,66.21,10.27,'11111222,11111222,11111222' 
COMPS,ioos:station:USF.COMPS:C10:1,2019-11-09T04:35:00,27.1690,-82.9260,3.0,7.35,60.51,9.15,'11111222,11111222,11111222' 
COMPS,ioos:station:USF.COMPS:C10:1,2019-11-09T05:35:00,27.1690,-82.9260,3.0,7.56,60.29,9.38,'11111222,11111222,11111222' 
COMPS,ioos:station:USF.COMPS:C10:1,2019-11-09T06:35:00,27.1690,-82.9260,3.0,8.35,52.13,10.07,'11111222,11111222,11111222' 
COMPS,ioos:station:USF.COMPS:C10:1,2019-11-09T07:35:00,27.1690,-82.9260,3.0,9.47,41.59,12.47,'11111222,11111222,11111222' 
COMPS,ioos:station:USF.COMPS:C10:1,2019-11-09T08:35:00,27.1690,-82.9260,3.0,10.23,49.68,12.66,'11111222,11111222,11111222' 
COMPS,ioos:station:USF.COMPS:C10:1,2019-11-09T09:35:00,27.1690,-82.9260,3.0,11.01,44.03,13.7,'11111222,11111222,11111222' 
COMPS,ioos:station:USF.COMPS:C10:1,2019-11-09T10:35:00,27.1690,-82.9260,3.0,12.41,54.2,14.91,'11111222,11111222,11111222' 
COMPS,ioos:station:USF.COMPS:C10:1,2019-11-09T11:35:00,27.1690,-82.9260,3.0,11.49,69.84,13.79,'11111222,11111222,11111222' 
COMPS,ioos:station:USF.COMPS:C10:1,2019-11-09T12:35:00,27.1690,-82.9260,3.0,10.9,72.65,12.8,'11111222,11111222,11111222' 